Погода в Шувакише

Россия / Свердловская область     56°55′14″N   60°28′52″E
темп.,
°C
ветер,
м/с
пор.,
м/с
влажн.,
%
обл.,
%
осадки,
мм/ч
давл.,
гПа
погр.,
м
12 апреля, пн
пн1223:00+8з41284100 0.0 1031500
02:00+8зюз31193100 0.3 1031458
05:00+7з3896100 0.6 1033418
08:00+7зсз2796100 0.1 1034313
11:00+9ссз3561100 0.1 1035648
14:00+11ссз3559100 0.0 10361128
17:00+10ссз3559100 0.0 10371152
20:00+5с26730 0.0 1039153
13 апреля, вт
вт1323:00+3ссз22850 0.0 104120
02:00+2ссз11883 0.0 104110
05:000зюз11870 0.0 104210
08:00+3ююз12730 0.0 1042114
11:00+8ю23485 0.0 1041526
14:00+12ююз23385 0.0 1038906
17:00+14ююз34415 0.0 10361120
20:00+9ююз227588 0.0 103515
14 апреля, ср
ср1423:00+9зюз2688100 0.0 1034113
02:00+8юз299397 0.0 1033195
05:00+7зюз2109464 0.0 1033253
08:00+8зюз31088100 0.0 1032321
11:00+14з476559 0.0 1031692
14:00+17з465494 0.0 10291382
17:00+18з464818 0.0 10281460
20:00+13з236913 0.0 102746
15 апреля, чт
чт1523:00+10зюз228065 0.0 102725
02:00+8зюз258968 0.0 102670
05:00+7зюз259080 0.0 102677
08:00+10зюз287857 0.0 1025230
11:00+16з47545 0.0 1023878
14:00+19з46455 0.0 10211514
17:00+18з464544 0.0 10191714
20:00+14з266057 0.0 1018106
16 апреля, пт
пт1623:00+10зюз246550 0.0 101870
02:00+8з27685 0.0 1017123
05:00+7зюз24695 0.0 101677
08:00+9з246395 0.0 1015157
11:00+14зсз23485 0.0 1013884
14:00+16зсз2443100 0.0 10111933
17:00+13ссв2264100 0.0 1009373
20:00+9св248692 0.6 1008130